CDT,Max TemperatureF,Mean TemperatureF,Min TemperatureF,Max Dew PointF,MeanDew PointF,Min DewpointF,Max Humidity, Mean Humidity, Min Humidity, Max Sea Level PressureIn, Mean Sea Level PressureIn, Min Sea Level PressureIn, Max VisibilityMiles, Mean VisibilityMiles, Min VisibilityMiles, Max Wind SpeedMPH, Mean Wind SpeedMPH, Max Gust SpeedMPH,PrecipitationIn, CloudCover, Events, WindDirDegrees
2012-4-1,92,71,49,57,48,29,100,64,11,29.55,29.44,29.27,10,7,0,21,8,30,0.00,0,Fog,166
2012-4-2,69,55,40,43,38,33,80,56,32,30.01,29.62,29.24,10,10,10,31,15,39,0.00,2,,344
2012-4-3,50,46,42,45,41,38,100,86,71,30.10,30.03,29.94,10,8,1,29,17,38,0.20,8,Rain,25
2012-4-4,51,47,43,45,44,41,96,90,77,29.97,29.92,29.87,10,8,2,20,11,26,0.58,8,Rain,19
2012-4-5,66,56,46,50,47,44,93,80,56,30.00,29.94,29.89,10,8,5,14,5,,0.00,6,,135
2012-4-6,61,55,49,52,48,45,100,84,63,30.01,29.93,29.79,10,9,2,29,14,38,0.00,8,,157
2012-4-7,62,49,36,52,25,15,88,42,17,30.37,30.21,29.92,10,10,8,30,13,43,0.00,1,,320
2012-4-8,74,53,31,38,30,22,75,44,16,30.37,30.25,30.14,10,10,2,22,8,24,0.00,0,,271
2012-4-9,68,52,35,35,30,26,70,47,29,30.23,30.19,30.13,10,10,10,18,9,24,0.00,1,,63
2012-4-10,64,48,32,37,32,25,82,54,35,30.30,30.21,30.14,10,10,10,15,7,23,0.00,5,,99
2012-4-11,55,50,44,35,29,21,61,46,39,30.27,30.17,30.06,10,10,10,23,13,30,0.00,7,,112
2012-4-12,61,53,45,58,49,35,100,91,59,30.03,29.77,29.55,10,5,1,30,15,46,0.76,8,Rain-Thunderstorm,126
2012-4-13,69,56,43,48,43,37,100,70,33,29.78,29.69,29.58,10,9,1,24,9,34,0.07,2,Rain,266
2012-4-14,78,58,38,60,48,36,100,75,30,29.75,29.54,29.27,10,7,0,24,9,28,0.00,5,Fog,94
2012-4-15,55,48,41,47,43,37,93,80,59,29.95,29.44,29.26,10,10,7,43,19,56,0.02,6,Rain-Thunderstorm,321
2012-4-16,59,48,36,40,35,31,86,67,47,30.23,30.14,29.97,10,10,10,14,8,,0.00,3,,252
2012-4-17,76,57,37,47,38,28,93,55,18,30.19,30.07,29.95,10,10,7,22,9,33,0.00,0,,203
2012-4-18,72,59,46,51,45,41,83,62,38,30.04,29.94,29.78,10,10,10,17,11,18,0.00,0,,92
2012-4-19,65,54,42,52,47,39,94,74,48,30.03,29.84,29.72,10,9,2,25,14,32,0.07,3,Rain,2
2012-4-20,64,51,37,43,38,32,96,66,32,30.19,30.10,30.01,10,10,8,15,8,22,0.05,3,Rain,345
2012-4-21,76,57,38,42,36,32,86,51,24,30.15,30.01,29.88,10,10,10,30,12,38,0.00,0,,345
2012-4-22,68,54,40,35,31,27,71,45,26,30.35,30.27,30.16,10,10,10,16,7,20,0.00,2,,16
2012-4-23,82,59,35,45,37,28,73,46,26,30.25,30.08,29.86,10,10,10,15,5,23,0.00,0,,169
2012-4-24,95,74,52,47,42,35,77,38,12,29.85,29.68,29.55,10,10,10,15,10,28,0.00,0,,264
2012-4-25,90,70,50,46,44,41,66,41,19,29.84,29.71,29.57,10,10,10,17,10,24,0.00,0,,337
2012-4-26,70,63,55,56,50,44,73,63,47,30.00,29.89,29.73,10,10,10,20,6,29,0.05,4,,96
2012-4-27,62,51,40,54,51,43,100,91,70,29.78,29.61,29.49,10,6,0,24,14,31,0.34,7,Fog-Rain-Thunderstorm,43
2012-4-28,67,53,39,43,38,30,100,69,26,30.02,29.91,29.79,10,7,0,13,5,,0.00,1,Fog,296
2012-4-29,71,59,46,49,44,40,93,65,35,30.03,29.97,29.90,10,9,4,13,6,17,0.00,3,,107
2012-4-30,76,61,46,57,50,44,100,80,45,30.03,29.92,29.70,10,8,2,18,10,24,0.04,4,Rain-Thunderstorm,177